| time (UTC) | temp F | wind direction | speed MPH | gust MPH | rain 1hr in | rain 24hr in | rain mn in | humidity % | barometer mb |
| 20260507051822 | 63 | 253 | 0.0 | 3.0 | 0.87 | 0.20 | 0.20 | 99 | 1016.0 |
| 20260507051319 | 63 | 75 | 0.0 | 2.0 | 0.40 | 0.08 | 0.08 | 99 | 1016.0 |
| 20260507050816 | 63 | 280 | 4.0 | 6.0 | 0.26 | 0.05 | 0.05 | 99 | 1016.0 |
| 20260507050312 | 63 | 42 | 3.0 | 3.0 | 0.00 | 0.00 | 0.00 | 99 | 1015.5 |
| 20260507045809 | 63 | 337 | 0.0 | 2.0 | 0.00 | 0.00 | 0.00 | 99 | 1015.2 |
| 20260507045307 | 63 | 74 | 0.0 | 0.0 | 0.00 | 0.00 | 0.00 | 99 | 1014.9 |
| 20260507044803 | 63 | 90 | 0.0 | 2.0 | 0.00 | 0.00 | 0.00 | 99 | 1014.9 |
| 20260507044300 | 63 | 90 | 0.0 | 1.0 | 0.00 | 0.00 | 0.00 | 99 | 1015.0 |
| 20260507043756 | 63 | 90 | 0.0 | 0.0 | 0.00 | 0.00 | 0.00 | 99 | 1014.6 |
| 20260507043253 | 63 | 90 | 0.0 | 0.0 | 0.00 | 0.00 | 0.00 | 99 | 1014.4 |
| 20260507042749 | 63 | 90 | 0.0 | 0.0 | 0.02 | 0.00 | 0.00 | 99 | 1015.3 |
| 20260507042244 | 63 | 74 | 0.0 | 1.0 | 0.02 | 0.00 | 0.00 | 99 | 1015.1 |
| 20260507041742 | 63 | 83 | 1.0 | 1.0 | 0.00 | 0.00 | 0.00 | 99 | 1015.7 |
| 20260507041238 | 63 | 90 | 0.0 | 0.0 | 0.00 | 0.00 | 0.00 | 99 | 1015.7 |
| 20260507040735 | 63 | 90 | 0.0 | 0.0 | 0.00 | 0.00 | 0.00 | 99 | 1015.8 |
| 20260507040231 | 63 | 81 | 0.0 | 1.0 | 0.00 | 0.00 | 0.00 | 99 | 1015.7 |
| 20260507035727 | 63 | 65 | 2.0 | 3.0 | 0.00 | 1.07 | 1.07 | 99 | 1016.0 |
| 20260507035223 | 63 | 0 | 1.0 | 1.0 | 0.00 | 1.07 | 1.07 | 99 | 1015.9 |
| 20260507034721 | 63 | 75 | 0.0 | 1.0 | 0.00 | 1.07 | 1.07 | 99 | 1016.0 |
| 20260507034217 | 63 | 296 | 3.0 | 5.0 | 0.00 | 1.07 | 1.07 | 99 | 1016.2 |
| 20260507033716 | 63 | 23 | 3.0 | 5.0 | 0.02 | 1.07 | 1.07 | 99 | 1015.4 |
| 20260507033213 | 63 | 274 | 3.0 | 3.0 | 0.02 | 1.07 | 1.07 | 99 | 1015.1 |
| 20260507032710 | 63 | 270 | 1.0 | 3.0 | 0.02 | 1.06 | 1.06 | 99 | 1014.0 |
| 20260507032206 | 63 | 90 | 3.0 | 5.0 | 0.31 | 1.06 | 1.06 | 99 | 1013.9 |
| 20260507031703 | 64 | 74 | 1.0 | 1.0 | 0.47 | 1.05 | 1.05 | 99 | 1016.6 |
| 20260507031159 | 64 | 102 | 0.0 | 2.0 | 0.35 | 1.00 | 1.00 | 99 | 1017.5 |
| 20260507030656 | 64 | 251 | 1.0 | 4.0 | 0.24 | 0.96 | 0.96 | 99 | 1018.1 |
| 20260507030154 | 64 | 18 | 0.0 | 2.0 | 0.19 | 0.94 | 0.94 | 99 | 1017.2 |
| 20260507025651 | 64 | 5 | 0.0 | 2.0 | 0.14 | 0.92 | 0.92 | 99 | 1016.9 |
| 20260507025148 | 64 | 81 | 0.0 | 0.0 | 0.24 | 0.90 | 0.90 | 99 | 1016.7 |
| 20260507024646 | 64 | 81 | 0.0 | 0.0 | 0.50 | 0.90 | 0.90 | 99 | 1016.6 |
| 20260507024143 | 64 | 0 | 0.0 | 4.0 | 0.50 | 0.84 | 0.84 | 99 | 1017.0 |
| 20260507023638 | 64 | 0 | 0.0 | 0.0 | 0.35 | 0.80 | 0.80 | 99 | 1017.0 |
| 20260507023136 | 64 | 0 | 0.0 | 0.0 | 0.14 | 0.75 | 0.75 | 99 | 1017.0 |
| 20260507022633 | 64 | 0 | 0.0 | 0.0 | 0.07 | 0.74 | 0.74 | 99 | 1016.5 |
| 20260507022128 | 64 | 0 | 0.0 | 2.0 | 0.02 | 0.72 | 0.72 | 99 | 1016.6 |
| 20260507021625 | 64 | 270 | 0.0 | 0.0 | 0.09 | 0.72 | 0.72 | 99 | 1016.7 |
| 20260507021120 | 64 | 270 | 0.0 | 0.0 | 0.28 | 0.72 | 0.72 | 99 | 1016.9 |
| 20260507020619 | 64 | 254 | 0.0 | 1.0 | 0.40 | 0.71 | 0.71 | 99 | 1016.9 |
| 20260507020115 | 64 | 90 | 0.0 | 0.0 | 0.09 | 0.65 | 0.65 | 99 | 1016.0 |
| 20260507015614 | 64 | 90 | 0.0 | 1.0 | 0.17 | 0.64 | 0.64 | 99 | 1016.9 |
| 20260507015111 | 64 | 212 | 0.0 | 4.0 | 0.33 | 0.63 | 0.63 | 99 | 1017.0 |
| 20260507014607 | 64 | 168 | 0.0 | 2.0 | 0.50 | 0.61 | 0.61 | 99 | 1016.5 |
| 20260507014103 | 64 | 339 | 3.0 | 3.0 | 0.50 | 0.57 | 0.57 | 99 | 1016.2 |
| 20260507013600 | 65 | 74 | 0.0 | 3.0 | 0.40 | 0.52 | 0.52 | 99 | 1016.2 |
| 20260507013057 | 65 | 32 | 2.0 | 4.0 | 0.33 | 0.48 | 0.48 | 99 | 1016.2 |
| 20260507012554 | 65 | 32 | 0.0 | 4.0 | 0.31 | 0.45 | 0.45 | 99 | 1016.4 |
| 20260507012050 | 66 | 337 | 0.0 | 0.0 | 0.21 | 0.42 | 0.42 | 99 | 1016.3 |
| 20260507011548 | 66 | 337 | 0.0 | 0.0 | 0.07 | 0.39 | 0.39 | 99 | 1016.0 |
| 20260507011044 | 65 | 337 | 0.0 | 0.0 | 0.00 | 0.38 | 0.38 | 98 | 1015.7 |
| 20260507010539 | 66 | 111 | 0.0 | 0.0 | 0.02 | 0.38 | 0.38 | 98 | 1015.7 |
| 20260507010035 | 66 | 111 | 0.0 | 0.0 | 0.07 | 0.38 | 0.38 | 97 | 1015.7 |
| 20260507005533 | 66 | 74 | 1.0 | 1.0 | 0.17 | 0.37 | 0.37 | 96 | 1015.5 |
| 20260507005029 | 67 | 42 | 6.0 | 6.0 | 0.31 | 0.37 | 0.37 | 96 | 1015.7 |
| 20260507004526 | 67 | 6 | 0.0 | 5.0 | 0.21 | 0.34 | 0.34 | 96 | 1016.1 |
| 20260507004023 | 68 | 117 | 0.0 | 5.0 | 0.19 | 0.31 | 0.31 | 95 | 1016.1 |
| 20260507003519 | 69 | 0 | 0.0 | 4.0 | 0.12 | 0.29 | 0.29 | 94 | 1015.8 |
| 20260507003014 | 69 | 66 | 2.0 | 2.0 | 0.09 | 0.28 | 0.28 | 95 | 1016.0 |
| 20260507002510 | 69 | 12 | 0.0 | 2.0 | 0.07 | 0.27 | 0.27 | 96 | 1015.7 |
| 20260507002007 | 69 | 345 | 0.0 | 1.0 | 0.05 | 0.26 | 0.26 | 95 | 1015.4 |
| 20260507001503 | 69 | 279 | 0.0 | 0.0 | 0.02 | 0.26 | 0.26 | 93 | 1015.5 |
| 20260507001001 | 70 | 279 | 0.0 | 0.0 | 0.05 | 0.25 | 0.25 | 93 | 1015.8 |
| 20260507000457 | 70 | 279 | 0.0 | 0.0 | 0.02 | 0.25 | 0.25 | 92 | 1015.4 |
| 20260506235952 | 70 | 279 | 0.0 | 0.0 | 0.02 | 0.24 | 0.24 | 91 | 1015.2 |
| 20260506235450 | 70 | 279 | 0.0 | 0.0 | 0.05 | 0.24 | 0.24 | 90 | 1015.2 |
| 20260506234946 | 71 | 279 | 0.0 | 0.0 | 0.05 | 0.24 | 0.24 | 89 | 1015.4 |
| 20260506234443 | 71 | 279 | 0.0 | 0.0 | 0.02 | 0.24 | 0.24 | 88 | 1015.1 |
| 20260506233941 | 71 | 90 | 0.0 | 0.0 | 0.00 | 0.23 | 0.23 | 88 | 1014.8 |
| 20260506233437 | 72 | 345 | 0.0 | 0.0 | 0.00 | 0.23 | 0.23 | 86 | 1015.0 |
| 20260506232934 | 72 | 345 | 0.0 | 0.0 | 0.00 | 0.23 | 0.23 | 85 | 1014.8 |
| 20260506232430 | 73 | 345 | 0.0 | 0.0 | 0.00 | 0.23 | 0.23 | 85 | 1015.1 |
| 20260506231926 | 73 | 345 | 0.0 | 0.0 | 0.00 | 0.23 | 0.23 | 83 | 1015.0 |
| 20260506231423 | 73 | 345 | 0.0 | 0.0 | 0.00 | 0.23 | 0.23 | 81 | 1015.1 |
| 20260506230920 | 74 | 345 | 0.0 | 0.0 | 0.00 | 0.23 | 0.23 | 82 | 1015.1 |
| 20260506230417 | 74 | 345 | 0.0 | 0.0 | 0.00 | 0.23 | 0.23 | 81 | 1015.0 |
| 20260506225913 | 74 | 345 | 0.0 | 0.0 | 0.00 | 0.23 | 0.23 | 79 | 1014.9 |
| 20260506225411 | 74 | 345 | 0.0 | 0.0 | 0.00 | 0.23 | 0.23 | 79 | 1014.8 |
| 20260506224908 | 74 | 345 | 0.0 | 0.0 | 0.00 | 0.23 | 0.23 | 78 | 1014.8 |
| 20260506224405 | 74 | 345 | 0.0 | 0.0 | 0.00 | 0.23 | 0.23 | 79 | 1014.7 |
| 20260506223901 | 74 | 63 | 0.0 | 1.0 | 0.00 | 0.23 | 0.23 | 79 | 1014.8 |
| 20260506223356 | 75 | 81 | 0.0 | 2.0 | 0.00 | 0.23 | 0.23 | 78 | 1014.9 |
| 20260506222854 | 75 | 7 | 0.0 | 3.0 | 0.00 | 0.23 | 0.23 | 78 | 1015.1 |
| 20260506222349 | 75 | 12 | 0.0 | 1.0 | 0.00 | 0.23 | 0.23 | 78 | 1015.0 |
| 20260506221847 | 76 | 98 | 0.0 | 1.0 | 0.00 | 0.23 | 0.23 | 78 | 1014.8 |
| 20260506221344 | 76 | 90 | 0.0 | 2.0 | 0.00 | 0.23 | 0.23 | 75 | 1014.6 |
| 20260506220842 | 77 | 111 | 0.0 | 1.0 | 0.00 | 0.23 | 0.23 | 75 | 1014.6 |
| 20260506220338 | 78 | 60 | 0.0 | 2.0 | 0.00 | 0.23 | 0.23 | 73 | 1014.9 |
| 20260506215834 | 79 | 279 | 0.0 | 2.0 | 0.00 | 0.23 | 0.23 | 75 | 1014.8 |
| 20260506215330 | 77 | 352 | 0.0 | 3.0 | 0.00 | 0.23 | 0.23 | 77 | 1014.9 |
| 20260506214826 | 76 | 82 | 0.0 | 2.0 | 0.00 | 0.23 | 0.23 | 78 | 1014.8 |
| 20260506214323 | 77 | 337 | 0.0 | 1.0 | 0.00 | 0.23 | 0.23 | 77 | 1014.7 |
| 20260506213822 | 77 | 90 | 0.0 | 4.0 | 0.00 | 0.23 | 0.23 | 77 | 1014.6 |
| 20260506213318 | 77 | 331 | 3.0 | 6.0 | 0.00 | 0.23 | 0.23 | 76 | 1015.1 |
| 20260506212816 | 78 | 270 | 0.0 | 5.0 | 0.00 | 0.23 | 0.23 | 76 | 1015.2 |
| 20260506212311 | 77 | 120 | 0.0 | 3.0 | 0.00 | 0.23 | 0.23 | 78 | 1015.0 |
| 20260506211806 | 77 | 203 | 1.0 | 4.0 | 0.00 | 0.23 | 0.23 | 78 | 1015.1 |
| 20260506211303 | 76 | 172 | 0.0 | 2.0 | 0.00 | 0.23 | 0.23 | 81 | 1014.8 |
| 20260506210801 | 77 | 120 | 0.0 | 4.0 | 0.00 | 0.23 | 0.23 | 80 | 1015.1 |
| 20260506210257 | 78 | 334 | 0.0 | 0.0 | 0.00 | 0.23 | 0.23 | 82 | 1015.0 |
| 20260506205754 | 76 | 334 | 0.0 | 6.0 | 0.00 | 0.23 | 0.23 | 80 | 1015.1 |
| 20260506205250 | 76 | 45 | 0.0 | 2.0 | 0.00 | 0.23 | 0.23 | 82 | 1015.0 |
| 20260506204747 | 76 | 0 | 0.0 | 0.0 | 0.00 | 0.23 | 0.23 | 82 | 1015.3 |
| 20260506204244 | 76 | 106 | 0.0 | 1.0 | 0.00 | 0.23 | 0.23 | 82 | 1015.2 |
| 20260506203742 | 75 | 279 | 0.0 | 7.0 | 0.00 | 0.23 | 0.23 | 82 | 1015.2 |
| 20260506203239 | 75 | 289 | 0.0 | 2.0 | 0.00 | 0.23 | 0.23 | 81 | 1015.4 |
| 20260506202736 | 75 | 308 | 5.0 | 5.0 | 0.00 | 0.23 | 0.23 | 80 | 1015.4 |
| 20260506202233 | 77 | 109 | 2.0 | 3.0 | 0.00 | 0.23 | 0.23 | 82 | 1015.8 |
| 20260506201730 | 75 | 106 | 0.0 | 2.0 | 0.00 | 0.23 | 0.23 | 86 | 1015.9 |
| 20260506201226 | 73 | 90 | 0.0 | 1.0 | 0.00 | 0.23 | 0.23 | 88 | 1015.8 |
| 20260506200723 | 72 | 90 | 0.0 | 1.0 | 0.00 | 0.23 | 0.23 | 87 | 1015.9 |
| 20260506200220 | 72 | 270 | 0.0 | 1.0 | 0.00 | 0.23 | 0.23 | 88 | 1016.0 |
| 20260506195716 | 73 | 81 | 0.0 | 0.0 | 0.00 | 0.23 | 0.23 | 88 | 1016.0 |
| 20260506195212 | 72 | 81 | 0.0 | 2.0 | 0.00 | 0.23 | 0.23 | 85 | 1016.1 |
| 20260506194704 | 73 | 90 | 0.0 | 2.0 | 0.00 | 0.23 | 0.23 | 86 | 1016.0 |
| 20260506194201 | 73 | 180 | 0.0 | 3.0 | 0.00 | 0.23 | 0.23 | 83 | 1016.0 |
| 20260506193658 | 74 | 81 | 0.0 | 0.0 | 0.00 | 0.23 | 0.23 | 87 | 1015.7 |
| 20260506193155 | 73 | 170 | 0.0 | 6.0 | 0.00 | 0.23 | 0.23 | 84 | 1016.0 |
| 20260506192652 | 72 | 305 | 0.0 | 3.0 | 0.00 | 0.23 | 0.23 | 87 | 1015.9 |
| 20260506192148 | 71 | 57 | 0.0 | 2.0 | 0.00 | 0.23 | 0.23 | 89 | 1015.9 |
| 20260506191645 | 71 | 90 | 0.0 | 2.0 | 0.00 | 0.23 | 0.23 | 90 | 1016.0 |
| 20260506191141 | 70 | 307 | 2.0 | 4.0 | 0.00 | 0.23 | 0.23 | 89 | 1015.9 |
| 20260506190639 | 70 | 313 | 3.0 | 4.0 | 0.00 | 0.23 | 0.23 | 91 | 1016.1 |
| 20260506190135 | 70 | 84 | 1.0 | 2.0 | 0.00 | 0.23 | 0.23 | 93 | 1015.9 |
| 20260506185633 | 70 | 270 | 0.0 | 3.0 | 0.00 | 0.23 | 0.23 | 96 | 1016.0 |
| 20260506185129 | 70 | 270 | 2.0 | 2.0 | 0.00 | 0.23 | 0.23 | 98 | 1015.7 |
| 20260506184626 | 70 | 83 | 0.0 | 1.0 | 0.00 | 0.23 | 0.23 | 99 | 1015.7 |
| 20260506184123 | 68 | 98 | 0.0 | 3.0 | 0.00 | 0.23 | 0.23 | 99 | 1016.1 |
| 20260506183620 | 67 | 98 | 0.0 | 2.0 | 0.00 | 0.23 | 0.23 | 99 | 1015.8 |
| 20260506183116 | 66 | 81 | 0.0 | 0.0 | 0.00 | 0.23 | 0.23 | 99 | 1016.0 |
| 20260506182614 | 66 | 45 | 2.0 | 2.0 | 0.00 | 0.23 | 0.23 | 99 | 1016.0 |
| 20260506182110 | 67 | 69 | 0.0 | 0.0 | 0.00 | 0.23 | 0.23 | 99 | 1016.0 |
| 20260506181608 | 66 | 69 | 0.0 | 1.0 | 0.00 | 0.23 | 0.23 | 99 | 1015.2 |
| 20260506181105 | 66 | 90 | 0.0 | 0.0 | 0.00 | 0.23 | 0.23 | 99 | 1015.7 |
| 20260506180602 | 66 | 69 | 0.0 | 0.0 | 0.02 | 0.23 | 0.23 | 99 | 1016.2 |
| 20260506180058 | 66 | 35 | 0.0 | 0.0 | 0.07 | 0.23 | 0.23 | 99 | 1016.3 |
| 20260506175554 | 65 | 66 | 0.0 | 3.0 | 0.12 | 0.23 | 0.23 | 99 | 1016.9 |
| 20260506175051 | 64 | 74 | 0.0 | 3.0 | 0.07 | 0.21 | 0.21 | 98 | 1017.3 |
| 20260506174550 | 64 | 98 | 0.0 | 2.0 | 0.07 | 0.20 | 0.20 | 98 | 1018.1 |
| 20260506174045 | 64 | 98 | 0.0 | 3.0 | 0.02 | 0.20 | 0.20 | 98 | 1018.1 |
| 20260506173543 | 64 | 90 | 0.0 | 2.0 | 0.05 | 0.19 | 0.19 | 97 | 1018.0 |
| 20260506173040 | 64 | 107 | 0.0 | 2.0 | 0.07 | 0.19 | 0.19 | 97 | 1018.1 |
| 20260506172538 | 64 | 0 | 0.0 | 1.0 | 0.12 | 0.18 | 0.18 | 97 | 1017.9 |
| 20260506172033 | 64 | 0 | 0.0 | 3.0 | 0.17 | 0.17 | 0.17 | 96 | 1018.3 |
| 20260506171531 | 63 | 97 | 1.0 | 5.0 | 0.28 | 0.16 | 0.16 | 95 | 1018.6 |
| 20260506171028 | 64 | 0 | 0.0 | 2.0 | 0.35 | 0.14 | 0.14 | 93 | 1019.3 |
| 20260506170526 | 65 | 53 | 0.0 | 2.0 | 0.54 | 0.10 | 0.10 | 91 | 1018.9 |
| 20260506170023 | 66 | 303 | 0.0 | 3.0 | 0.38 | 0.06 | 0.06 | 85 | 1018.4 |
| 20260506165522 | 69 | 85 | 2.0 | 6.0 | 0.02 | 0.00 | 0.00 | 74 | 1018.6 |
| 20260506165018 | 70 | 111 | 1.0 | 5.0 | 0.00 | 0.00 | 0.00 | 71 | 1018.2 |
| 20260506164514 | 72 | 338 | 4.0 | 4.0 | 0.00 | 0.00 | 0.00 | 65 | 1018.0 |
| 20260506164012 | 71 | 29 | 0.0 | 3.0 | 0.00 | 0.00 | 0.00 | 64 | 1017.8 |
| 20260506163508 | 73 | 26 | 2.0 | 2.0 | 0.00 | 0.00 | 0.00 | 64 | 1018.0 |
| 20260506163004 | 73 | 74 | 0.0 | 2.0 | 0.00 | 0.00 | 0.00 | 61 | 1017.3 |
| 20260506162500 | 73 | 338 | 3.0 | 4.0 | 0.00 | 0.00 | 0.00 | 62 | 1017.3 |
| 20260506161957 | 74 | 4 | 2.0 | 2.0 | 0.00 | 0.00 | 0.00 | 63 | 1017.2 |
| 20260506161455 | 74 | 90 | 0.0 | 2.0 | 0.00 | 0.00 | 0.00 | 61 | 1017.1 |
| 20260506160952 | 74 | 74 | 0.0 | 5.0 | 0.00 | 0.00 | 0.00 | 59 | 1017.3 |
| 20260506160449 | 75 | 96 | 0.0 | 5.0 | 0.00 | 0.00 | 0.00 | 62 | 1017.1 |
| 20260506155946 | 76 | 29 | 1.0 | 3.0 | 0.00 | 0.00 | 0.00 | 60 | 1017.4 |
| 20260506155444 | 75 | 8 | 0.0 | 2.0 | 0.00 | 0.00 | 0.00 | 61 | 1017.2 |
| 20260506153616 | 75 | 294 | 1.0 | 7.0 | 0.00 | 0.00 | 0.00 | 66 | 1017.2 |
| 20260506153114 | 75 | 270 | 0.0 | 4.0 | 0.00 | 0.00 | 0.00 | 68 | 1017.2 |
| 20260506152611 | 74 | 235 | 2.0 | 5.0 | 0.00 | 0.00 | 0.00 | 66 | 1017.1 |
| 20260506152109 | 74 | 90 | 0.0 | 6.0 | 0.00 | 0.00 | 0.00 | 67 | 1016.9 |
| 20260506151607 | 73 | 261 | 0.0 | 4.0 | 0.00 | 0.00 | 0.00 | 70 | 1016.7 |
| 20260506151103 | 73 | 291 | 1.0 | 5.0 | 0.00 | 0.00 | 0.00 | 65 | 1016.6 |
| 20260506150600 | 73 | 90 | 0.0 | 2.0 | 0.00 | 0.00 | 0.00 | 72 | 1016.7 |
| 20260506150057 | 73 | 287 | 0.0 | 2.0 | 0.00 | 0.00 | 0.00 | 74 | 1016.6 |
| 20260506145554 | 72 | 270 | 0.0 | 3.0 | 0.00 | 0.00 | 0.00 | 74 | 1017.1 |
| 20260506145051 | 71 | 90 | 0.0 | 2.0 | 0.00 | 0.00 | 0.00 | 75 | 1017.0 |
| 20260506144548 | 70 | 90 | 0.0 | 2.0 | 0.00 | 0.00 | 0.00 | 77 | 1017.1 |
| 20260506144045 | 70 | 97 | 1.0 | 2.0 | 0.00 | 0.00 | 0.00 | 78 | 1016.8 |
| 20260506143543 | 69 | 90 | 0.0 | 1.0 | 0.00 | 0.00 | 0.00 | 80 | 1017.3 |
| 20260506143041 | 68 | 82 | 0.0 | 0.0 | 0.00 | 0.00 | 0.00 | 79 | 1017.1 |
| 20260506142538 | 68 | 261 | 0.0 | 0.0 | 0.00 | 0.00 | 0.00 | 79 | 1017.3 |
| 20260506142037 | 68 | 270 | 1.0 | 1.0 | 0.00 | 0.00 | 0.00 | 79 | 1017.1 |
| 20260506141534 | 67 | 303 | 0.0 | 2.0 | 0.00 | 0.00 | 0.00 | 80 | 1017.2 |
| 20260506141032 | 67 | 270 | 0.0 | 1.0 | 0.00 | 0.00 | 0.00 | 81 | 1017.0 |
| 20260506140529 | 67 | 90 | 0.0 | 1.0 | 0.00 | 0.00 | 0.00 | 80 | 1017.1 |
| 20260506140026 | 67 | 90 | 0.0 | 3.0 | 0.00 | 0.00 | 0.00 | 80 | 1016.9 |
| 20260506135523 | 67 | 291 | 0.0 | 3.0 | 0.00 | 0.00 | 0.00 | 80 | 1017.2 |
| 20260506135019 | 67 | 166 | 0.0 | 1.0 | 0.00 | 0.00 | 0.00 | 80 | 1016.7 |
| 20260506134515 | 67 | 90 | 0.0 | 4.0 | 0.00 | 0.00 | 0.00 | 79 | 1017.0 |
| 20260506134012 | 67 | 90 | 1.0 | 2.0 | 0.00 | 0.00 | 0.00 | 80 | 1016.7 |
| 20260506133509 | 67 | 339 | 0.0 | 5.0 | 0.00 | 0.00 | 0.00 | 79 | 1016.6 |
| 20260506133006 | 67 | 30 | 0.0 | 2.0 | 0.00 | 0.00 | 0.00 | 81 | 1016.8 |
| 20260506132503 | 66 | 209 | 0.0 | 2.0 | 0.00 | 0.00 | 0.00 | 82 | 1016.8 |
| 20260506132000 | 65 | 90 | 0.0 | 2.0 | 0.00 | 0.00 | 0.00 | 81 | 1016.8 |
| 20260506131457 | 65 | 90 | 0.0 | 1.0 | 0.00 | 0.00 | 0.00 | 82 | 1016.9 |
| 20260506130954 | 65 | 114 | 0.0 | 3.0 | 0.00 | 0.00 | 0.00 | 82 | 1016.7 |
| 20260506130450 | 64 | 106 | 0.0 | 4.0 | 0.00 | 0.00 | 0.00 | 83 | 1016.8 |
| 20260506125948 | 64 | 99 | 0.0 | 2.0 | 0.00 | 0.00 | 0.00 | 83 | 1016.4 |
| 20260506125446 | 63 | 54 | 0.0 | 2.0 | 0.00 | 0.00 | 0.00 | 83 | 1016.4 |
| 20260506124944 | 63 | 90 | 0.0 | 2.0 | 0.00 | 0.00 | 0.00 | 84 | 1016.6 |
| 20260506124441 | 63 | 97 | 1.0 | 2.0 | 0.00 | 0.00 | 0.00 | 84 | 1016.7 |
| 20260506123939 | 63 | 81 | 0.0 | 2.0 | 0.00 | 0.00 | 0.00 | 84 | 1017.2 |
| 20260506123437 | 63 | 6 | 0.0 | 2.0 | 0.00 | 0.00 | 0.00 | 83 | 1017.4 |
| 20260506122934 | 62 | 66 | 0.0 | 2.0 | 0.00 | 0.00 | 0.00 | 84 | 1017.3 |
| 20260506122431 | 62 | 241 | 0.0 | 2.0 | 0.00 | 0.00 | 0.00 | 84 | 1017.0 |
| 20260506121929 | 62 | 90 | 0.0 | 2.0 | 0.00 | 0.00 | 0.00 | 84 | 1017.4 |
| 20260506121426 | 62 | 246 | 0.0 | 4.0 | 0.00 | 0.00 | 0.00 | 84 | 1017.6 |
| 20260506120923 | 62 | 94 | 3.0 | 3.0 | 0.00 | 0.00 | 0.00 | 84 | 1017.6 |
| 20260506120420 | 62 | 74 | 0.0 | 2.0 | 0.00 | 0.00 | 0.00 | 84 | 1017.6 |
| 20260506115917 | 62 | 286 | 0.0 | 1.0 | 0.00 | 0.00 | 0.00 | 85 | 1017.7 |
| 20260506115415 | 62 | 66 | 0.0 | 1.0 | 0.00 | 0.00 | 0.00 | 84 | 1017.6 |
| 20260506114914 | 62 | 352 | 0.0 | 1.0 | 0.00 | 0.00 | 0.00 | 84 | 1017.5 |
| 20260506114411 | 62 | 90 | 0.0 | 0.0 | 0.00 | 0.00 | 0.00 | 85 | 1017.2 |
| 20260506113910 | 62 | 90 | 0.0 | 0.0 | 0.00 | 0.00 | 0.00 | 85 | 1017.3 |
| 20260506113407 | 61 | 270 | 2.0 | 2.0 | 0.00 | 0.00 | 0.00 | 85 | 1017.3 |
| 20260506112903 | 61 | 180 | 0.0 | 2.0 | 0.00 | 0.00 | 0.00 | 85 | 1017.1 |
| 20260506112400 | 61 | 53 | 2.0 | 2.0 | 0.00 | 0.00 | 0.00 | 86 | 1017.2 |
| 20260506111857 | 61 | 270 | 0.0 | 0.0 | 0.00 | 0.00 | 0.00 | 85 | 1016.9 |
| 20260506111356 | 61 | 0 | 0.0 | 2.0 | 0.00 | 0.00 | 0.00 | 85 | 1016.9 |
| 20260506110853 | 60 | 90 | 0.0 | 0.0 | 0.00 | 0.00 | 0.00 | 86 | 1016.9 |
| 20260506110350 | 60 | 35 | 0.0 | 1.0 | 0.00 | 0.00 | 0.00 | 86 | 1016.8 |
| 20260506105847 | 60 | 99 | 0.0 | 0.0 | 0.00 | 0.00 | 0.00 | 85 | 1016.7 |
| 20260506105343 | 60 | 99 | 0.0 | 0.0 | 0.00 | 0.00 | 0.00 | 86 | 1016.7 |
| 20260506104841 | 60 | 75 | 0.0 | 2.0 | 0.00 | 0.00 | 0.00 | 85 | 1016.4 |
| 20260506104338 | 60 | 262 | 0.0 | 1.0 | 0.00 | 0.00 | 0.00 | 85 | 1016.6 |
| 20260506103836 | 60 | 337 | 0.0 | 2.0 | 0.00 | 0.00 | 0.00 | 85 | 1016.2 |
| 20260506103333 | 60 | 6 | 0.0 | 2.0 | 0.00 | 0.00 | 0.00 | 86 | 1016.4 |
| 20260506102831 | 60 | 254 | 0.0 | 0.0 | 0.00 | 0.00 | 0.00 | 86 | 1016.2 |
| 20260506102328 | 60 | 254 | 0.0 | 2.0 | 0.00 | 0.00 | 0.00 | 85 | 1016.1 |
| 20260506101825 | 60 | 81 | 0.0 | 0.0 | 0.00 | 0.00 | 0.00 | 85 | 1016.2 |
| 20260506101321 | 61 | 77 | 0.0 | 1.0 | 0.00 | 0.00 | 0.00 | 85 | 1016.2 |
| 20260506100819 | 60 | 90 | 0.0 | 0.0 | 0.00 | 0.00 | 0.00 | 84 | 1016.3 |
| 20260506100318 | 60 | 90 | 1.0 | 1.0 | 0.00 | 0.00 | 0.00 | 85 | 1016.2 |
| 20260506095816 | 60 | 174 | 0.0 | 1.0 | 0.00 | 0.00 | 0.00 | 85 | 1016.3 |
| 20260506095312 | 60 | 100 | 0.0 | 2.0 | 0.00 | 0.00 | 0.00 | 85 | 1016.1 |
| 20260506094809 | 60 | 14 | 0.0 | 1.0 | 0.00 | 0.00 | 0.00 | 85 | 1016.2 |
| 20260506094308 | 60 | 83 | 0.0 | 1.0 | 0.00 | 0.00 | 0.00 | 85 | 1016.2 |
| 20260506093805 | 60 | 82 | 0.0 | 1.0 | 0.00 | 0.00 | 0.00 | 85 | 1016.4 |
| 20260506093302 | 60 | 90 | 0.0 | 2.0 | 0.00 | 0.00 | 0.00 | 85 | 1016.4 |
| 20260506092800 | 60 | 6 | 0.0 | 2.0 | 0.00 | 0.00 | 0.00 | 85 | 1016.3 |
| 20260506092258 | 60 | 68 | 0.0 | 2.0 | 0.00 | 0.00 | 0.00 | 85 | 1016.4 |
| 20260506091755 | 61 | 90 | 0.0 | 1.0 | 0.00 | 0.00 | 0.00 | 85 | 1016.4 |
| 20260506091252 | 60 | 90 | 0.0 | 1.0 | 0.00 | 0.00 | 0.00 | 84 | 1016.6 |
| 20260506090750 | 61 | 348 | 0.0 | 1.0 | 0.00 | 0.00 | 0.00 | 84 | 1016.8 |
| 20260506090247 | 61 | 81 | 0.0 | 0.0 | 0.00 | 0.00 | 0.00 | 84 | 1016.5 |
| 20260506085744 | 61 | 168 | 0.0 | 1.0 | 0.00 | 0.00 | 0.00 | 84 | 1016.6 |
| 20260506085240 | 61 | 99 | 0.0 | 2.0 | 0.00 | 0.00 | 0.00 | 84 | 1016.9 |
| 20260506084736 | 61 | 99 | 0.0 | 1.0 | 0.00 | 0.00 | 0.00 | 84 | 1016.7 |
| 20260506084233 | 61 | 99 | 0.0 | 1.0 | 0.00 | 0.00 | 0.00 | 84 | 1016.9 |
| 20260506083730 | 61 | 59 | 2.0 | 2.0 | 0.00 | 0.00 | 0.00 | 85 | 1016.9 |
| 20260506083228 | 61 | 75 | 0.0 | 1.0 | 0.00 | 0.00 | 0.00 | 84 | 1017.0 |
| 20260506082725 | 61 | 81 | 0.0 | 2.0 | 0.00 | 0.00 | 0.00 | 83 | 1016.8 |
| 20260506082220 | 61 | 23 | 0.0 | 1.0 | 0.00 | 0.00 | 0.00 | 84 | 1017.0 |
| 20260506081718 | 61 | 0 | 0.0 | 2.0 | 0.00 | 0.00 | 0.00 | 83 | 1017.0 |
| 20260506081215 | 61 | 73 | 0.0 | 2.0 | 0.00 | 0.00 | 0.00 | 83 | 1016.8 |
| 20260506080713 | 61 | 90 | 1.0 | 1.0 | 0.00 | 0.00 | 0.00 | 83 | 1016.9 |
| 20260506080209 | 62 | 90 | 0.0 | 4.0 | 0.00 | 0.00 | 0.00 | 83 | 1017.0 |
| 20260506073154 | 62 | 68 | 0.0 | 2.0 | 0.00 | 0.00 | 0.00 | 82 | 1017.0 |
| 20260506072650 | 62 | 84 | 2.0 | 2.0 | 0.00 | 0.00 | 0.00 | 81 | 1017.1 |
| 20260506072148 | 62 | 63 | 0.0 | 2.0 | 0.00 | 0.00 | 0.00 | 81 | 1017.1 |
| 20260506071645 | 62 | 90 | 0.0 | 3.0 | 0.00 | 0.00 | 0.00 | 81 | 1017.1 |
| 20260506071143 | 62 | 68 | 0.0 | 2.0 | 0.00 | 0.00 | 0.00 | 81 | 1017.3 |
| 20260506070640 | 62 | 90 | 0.0 | 2.0 | 0.00 | 0.00 | 0.00 | 81 | 1017.1 |
| 20260506070137 | 62 | 66 | 0.0 | 1.0 | 0.00 | 0.00 | 0.00 | 80 | 1016.7 |
| 20260506062114 | 63 | 0 | 0.0 | 2.0 | 0.00 | 0.00 | 0.00 | 80 | 1017.1 |
| 20260506061610 | 63 | 45 | 0.0 | 3.0 | 0.00 | 0.00 | 0.00 | 78 | 1017.1 |
| 20260506061108 | 63 | 81 | 0.0 | 3.0 | 0.00 | 0.00 | 0.00 | 80 | 1017.4 |
| 20260506060606 | 63 | 74 | 0.0 | 2.0 | 0.00 | 0.00 | 0.00 | 80 | 1017.5 |